#timestamp,LO_Frequency,Hit,StdDev 
1696291215.2,286047017.2,P
1696291235.0,286047018.2,Y
1696291235.9,286047018.2,P
1696291255.8,286047007.0,N
1696291275.6,286047007.2,N
1696291295.4,286047007.2,N
1696291315.3,286047004.8,N
1696291335.1,286047004.9,N
1696291355.8,286047007.6,N
1696291375.7,286047007.3,N
1696291395.5,286047006.7,N
1696291415.4,286047008.1,N
1696291435.2,286047008.2,N
1696291455.0,286047010.6,Y
1696291455.9,286047010.6,P
1696291475.8,286046999.8,N
1696291495.6,286047000.4,N
1696291515.5,286047000.5,N
1696291535.3,286046997.1,N
1696291555.1,286046994.9,N
1696291575.9,286046996.9,N
1696291595.7,286046996.9,N
1696291615.6,286047001.0,N
1696291635.4,286047000.4,N
1696291655.2,286047002.7,N
1696291675.1,286047000.4,N
1696291676.0,286047000.4,N
1696291695.8,286047001.1,N
1696291715.6,286047000.5,N
1696291735.5,286047000.4,N
1696291755.3,286047000.2,N
1696291775.2,286047001.1,N
1696291795.0,286046999.5,N
1696291795.9,286046999.5,N
1696291815.8,286046999.2,N
1696291835.6,286046998.9,N
1696291855.4,286047001.2,N
1696291875.3,286047002.6,N
1696291895.1,286047003.9,N
1696291915.8,286047002.3,N
1696291935.7,286047002.8,N
1696291955.5,286047000.7,N
1696291975.4,286046998.5,N
1696291995.2,286046998.8,N
1696292015.0,286047000.1,N
1696292015.9,286047000.1,N
1696292035.8,286047000.4,N
1696292055.6,286047001.8,N
1696292075.5,286047003.8,N
1696292095.3,286047005.7,N
1696292115.1,286047006.5,Y
1696292135.9,286047008.6,P
1696292155.7,286047009.3,N
1696292175.5,286047011.2,N
1696292195.4,286047011.8,N
1696292215.2,286047012.8,Y
1696292235.1,286047005.2,P
1696292236.0,286047005.2,P
1696292255.8,286047007.6,P
1696292275.6,286047005.2,Y
1696292295.5,286046999.6,P
1696292315.3,286046999.5,N
1696292335.1,286046997.0,N
1696292355.9,286047001.0,N
1696292375.7,286047002.4,N
1696292395.6,286047001.3,N
1696292415.4,286047003.9,N
1696292435.2,286047004.1,N
1696292455.1,286047001.6,N
1696292456.0,286047001.6,N
1696292475.8,286047003.1,N
1696292495.7,286047003.7,N
1696292515.5,286047005.0,N
1696292535.3,286047006.5,N
1696292555.2,286047007.2,N
1696292575.9,286047007.4,N
1696292595.7,286047004.6,N
1696292615.6,286047007.5,N
1696292635.4,286047007.3,N
1696292655.2,286047004.8,N
1696292675.1,286047003.7,N
1696292676.0,286047003.7,N
1696292695.8,286047005.5,N
1696292715.7,286047003.5,N
1696292735.5,286047001.8,N
1696292755.3,286047003.3,N
1696292775.2,286047003.7,N
1696292795.0,286047005.7,N
1696292795.9,286047005.7,N
1696292815.8,286047004.7,N
1696292835.6,286047004.9,N
1696292855.4,286047005.1,N
1696292875.3,286047005.0,N
1696292895.1,286047004.7,N
1696292915.8,286047004.6,N
1696292935.7,286047006.1,Y
1696292955.5,286047006.0,P
1696293005.4,286047006.8,E
1696293015.3,286047005.6,N
1696293035.2,286047002.5,P
1696293055.9,286047002.5,N
1696293075.7,286047003.9,N
1696293095.6,286047001.3,N
1696293115.4,286047003.6,N
1696293135.2,286047003.3,N
1696293155.1,286047004.8,Y
1696293156.0,286047004.8,P
1696293175.8,286047002.6,P
1696293195.7,286047001.5,N
1696293215.5,286047003.9,Y
1696293235.3,286046998.9,P
1696293255.2,286047001.1,N
1696293275.0,286047000.8,N
1696293275.9,286047000.8,N
1696293295.8,286047002.1,N
1696293315.6,286047001.3,N
1696293335.4,286047005.7,Y
1696293355.3,286047004.9,P
1696293375.1,286047007.3,P
1696293395.9,286047004.8,N
1696293415.7,286047007.3,Y
1696293435.5,286047004.4,P
1696293455.4,286047002.0,P
1696293475.2,286047001.9,N
1696293495.0,286047003.1,N
1696293495.9,286047003.1,N
1696293515.8,286047005.4,Y
1696293535.6,286047000.2,P
1696293555.5,286047000.2,N
1696293575.3,286047001.8,N
1696293595.1,286047003.1,N
1696293615.9,286047002.4,N
1696293635.7,286047001.6,N
1696293655.6,286047002.1,N
1696293675.4,286047001.5,N
1696293695.2,286047001.7,N
1696293715.1,286047003.7,Y
1696293716.0,286047003.7,P
1696293735.8,286047001.6,N
1696293755.6,286047002.3,N
1696293775.5,286047001.6,N
1696293795.3,286047001.9,N
1696293815.2,286047002.7,Y
1696293835.9,286046998.7,P
1696293855.7,286046999.1,N
1696293875.6,286046996.7,N
1696293895.4,286046996.5,N
1696293915.2,286047000.6,N
1696293935.1,286047000.4,N
1696293936.0,286047000.4,N
1696293955.8,286047002.5,N
1696293975.7,286047003.4,N
1696293995.5,286047003.0,N
1696294015.3,286047004.5,N
1696294035.2,286047005.1,N
1696294055.9,286047007.5,N
1696294075.7,286047005.9,N
1696294095.6,286047006.4,N
1696294115.4,286047006.7,N
1696294135.2,286047004.9,N
1696294155.1,286047004.8,N
1696294156.0,286047004.8,N
1696294175.8,286047005.1,N
1696294195.7,286047006.8,N
1696294215.5,286047008.7,N
1696294235.3,286047009.0,N
1696294255.2,286047010.6,Y
1696294275.0,286047006.3,P
1696294275.9,286047006.3,P
1696294295.7,286047008.7,P
1696294315.6,286047008.0,Y
1696294335.4,286047002.6,P
1696294355.3,286047002.2,N
1696294375.1,286047004.0,N
1696294376.0,286047004.0,N
1696294395.8,286047003.0,N
1696294415.7,286047006.7,Y
1696294435.5,286047005.5,P
1696294455.3,286047005.7,P
1696294475.2,286047007.4,P
1696294495.0,286047007.2,Y
1696294495.9,286047007.2,P
1696294515.8,286047001.1,N
1696294535.6,286047000.6,N
1696294555.4,286047002.7,N
1696294575.3,286047004.2,N
1696294595.1,286047003.2,N
1696294615.8,286047004.7,N
1696294635.7,286047007.6,Y
1696294655.5,286047004.3,P
1696294675.4,286047001.4,P
1696294695.2,286047004.4,P
1696294715.0,286047001.8,N
1696294715.9,286047001.8,N
1696294735.8,286047003.5,N
1696294755.6,286047003.1,N
1696294775.4,286047003.2,N
1696294795.3,286047003.5,Y
